| time (UTC) | temp F | wind direction | speed MPH | gust MPH | rain 1hr in | rain 24hr in | rain mn in | humidity % | barometer mb |
| 20260906165019 | 77 | 232 | 1.0 | 6.0 | 0.00 | 0.00 | 0.00 | 71 | 1022.1 |
| 20260906164537 | 77 | 232 | 1.0 | 6.0 | 0.00 | 0.00 | 0.00 | 71 | 1022.2 |
| 20260906164018 | 76 | 232 | 2.0 | 6.0 | 0.00 | 0.00 | 0.00 | 71 | 1022.2 |
| 20260906163520 | 76 | 179 | 2.0 | 6.0 | 0.00 | 0.00 | 0.00 | 72 | 1022.1 |
| 20260906163034 | 76 | 194 | 2.0 | 5.0 | 0.00 | 0.00 | 0.00 | 75 | 1022.1 |
| 20260906162520 | 76 | 202 | 3.0 | 7.0 | 0.00 | 0.00 | 0.00 | 73 | 1022.1 |
| 20260906162019 | 75 | 183 | 2.0 | 7.0 | 0.00 | 0.00 | 0.00 | 72 | 1022.1 |
| 20260906161536 | 75 | 185 | 3.0 | 7.0 | 0.00 | 0.00 | 0.00 | 74 | 1022.1 |
| 20260906161022 | 75 | 211 | 1.0 | 7.0 | 0.00 | 0.00 | 0.00 | 74 | 1022.2 |
| 20260906160520 | 74 | 232 | 2.0 | 5.0 | 0.00 | 0.00 | 0.00 | 74 | 1022.3 |
| 20260906160037 | 74 | 232 | 2.0 | 6.0 | 0.00 | 0.00 | 0.00 | 74 | 1022.2 |
| 20260906155518 | 74 | 188 | 3.0 | 8.0 | 0.00 | 0.00 | 0.00 | 74 | 1022.3 |
| 20260906155016 | 74 | 207 | 3.0 | 8.0 | 0.00 | 0.00 | 0.00 | 76 | 1022.2 |
| 20260906154541 | 74 | 190 | 5.0 | 8.0 | 0.00 | 0.00 | 0.00 | 75 | 1022.2 |
| 20260906154022 | 74 | 192 | 3.0 | 8.0 | 0.00 | 0.00 | 0.00 | 75 | 1022.2 |
| 20260906153520 | 74 | 184 | 3.0 | 8.0 | 0.00 | 0.00 | 0.00 | 75 | 1022.3 |
| 20260906153034 | 73 | 179 | 3.0 | 6.0 | 0.00 | 0.00 | 0.00 | 75 | 1022.4 |
| 20260906152520 | 73 | 173 | 3.0 | 7.0 | 0.00 | 0.00 | 0.00 | 75 | 1022.4 |
| 20260906152021 | 73 | 180 | 4.0 | 7.0 | 0.00 | 0.00 | 0.00 | 75 | 1022.3 |
| 20260906151538 | 73 | 169 | 4.0 | 7.0 | 0.00 | 0.00 | 0.00 | 78 | 1022.4 |
| 20260906151019 | 73 | 153 | 4.0 | 7.0 | 0.00 | 0.00 | 0.00 | 78 | 1022.4 |
| 20260906150520 | 73 | 182 | 1.0 | 3.0 | 0.00 | 0.00 | 0.00 | 77 | 1022.6 |
| 20260906150041 | 73 | 123 | 0.0 | 3.0 | 0.00 | 0.00 | 0.00 | 80 | 1022.7 |
| 20260906145516 | 73 | 0 | 0.0 | 3.0 | 0.00 | 0.00 | 0.00 | 81 | 1022.5 |
| 20260906145023 | 72 | 0 | 0.0 | 1.0 | 0.00 | 0.00 | 0.00 | 82 | 1022.6 |
| 20260906144533 | 72 | 0 | 0.0 | 1.0 | 0.00 | 0.00 | 0.00 | 83 | 1022.7 |
| 20260906144019 | 72 | 0 | 0.0 | 1.0 | 0.00 | 0.00 | 0.00 | 83 | 1022.6 |
| 20260906143520 | 71 | 0 | 0.0 | 2.0 | 0.00 | 0.00 | 0.00 | 85 | 1022.4 |
| 20260906143035 | 71 | 0 | 0.0 | 3.0 | 0.00 | 0.00 | 0.00 | 86 | 1022.3 |
| 20260906142520 | 71 | 0 | 0.0 | 5.0 | 0.00 | 0.00 | 0.00 | 86 | 1022.2 |
| 20260906142025 | 70 | 180 | 1.0 | 5.0 | 0.00 | 0.00 | 0.00 | 87 | 1022.3 |
| 20260906141532 | 70 | 180 | 1.0 | 5.0 | 0.00 | 0.00 | 0.00 | 88 | 1022.2 |
| 20260906141019 | 70 | 182 | 2.0 | 5.0 | 0.00 | 0.00 | 0.00 | 88 | 1022.2 |
| 20260906140518 | 70 | 182 | 2.0 | 6.0 | 0.00 | 0.00 | 0.00 | 89 | 1022.4 |
| 20260906140034 | 69 | 182 | 2.0 | 6.0 | 0.00 | 0.00 | 0.00 | 90 | 1022.3 |
| 20260906135521 | 69 | 174 | 2.0 | 5.0 | 0.00 | 0.00 | 0.00 | 89 | 1022.3 |
| 20260906135023 | 69 | 176 | 2.0 | 5.0 | 0.00 | 0.00 | 0.00 | 92 | 1022.2 |
| 20260906134546 | 68 | 176 | 2.0 | 6.0 | 0.00 | 0.00 | 0.00 | 92 | 1022.2 |
| 20260906134024 | 68 | 176 | 2.0 | 7.0 | 0.00 | 0.00 | 0.00 | 93 | 1022.2 |
| 20260906133518 | 68 | 176 | 3.0 | 8.0 | 0.00 | 0.00 | 0.00 | 93 | 1022.4 |
| 20260906133101 | 68 | 158 | 3.0 | 8.0 | 0.00 | 0.00 | 0.00 | 94 | 1022.3 |
| 20260906132518 | 68 | 187 | 3.0 | 8.0 | 0.00 | 0.00 | 0.00 | 94 | 1022.4 |
| 20260906132022 | 67 | 175 | 3.0 | 7.0 | 0.00 | 0.00 | 0.00 | 94 | 1022.4 |
| 20260906131533 | 67 | 178 | 3.0 | 7.0 | 0.00 | 0.00 | 0.00 | 95 | 1022.4 |
| 20260906131022 | 67 | 169 | 4.0 | 7.0 | 0.00 | 0.00 | 0.00 | 95 | 1022.4 |
| 20260906130520 | 67 | 178 | 3.0 | 5.0 | 0.00 | 0.00 | 0.00 | 95 | 1022.5 |
| 20260906130037 | 67 | 176 | 2.0 | 6.0 | 0.00 | 0.00 | 0.00 | 95 | 1022.5 |
| 20260906125521 | 67 | 173 | 3.0 | 6.0 | 0.00 | 0.00 | 0.00 | 96 | 1022.5 |
| 20260906125022 | 67 | 157 | 2.0 | 6.0 | 0.00 | 0.00 | 0.00 | 96 | 1022.4 |
| 20260906124536 | 66 | 146 | 3.0 | 6.0 | 0.00 | 0.00 | 0.00 | 95 | 1022.4 |
| 20260906124018 | 66 | 176 | 2.0 | 6.0 | 0.00 | 0.00 | 0.00 | 95 | 1022.4 |
| 20260906123515 | 66 | 155 | 3.0 | 6.0 | 0.00 | 0.00 | 0.00 | 95 | 1022.4 |
| 20260906123036 | 66 | 155 | 2.0 | 7.0 | 0.00 | 0.00 | 0.00 | 96 | 1022.3 |
| 20260906122520 | 66 | 155 | 3.0 | 7.0 | 0.00 | 0.00 | 0.00 | 96 | 1022.3 |
| 20260906122020 | 66 | 171 | 2.0 | 5.0 | 0.00 | 0.00 | 0.00 | 96 | 1022.3 |
| 20260906121536 | 66 | 171 | 1.0 | 5.0 | 0.00 | 0.00 | 0.00 | 96 | 1022.3 |
| 20260906121024 | 66 | 171 | 1.0 | 5.0 | 0.00 | 0.00 | 0.00 | 96 | 1022.3 |
| 20260906120520 | 66 | 171 | 2.0 | 5.0 | 0.00 | 0.00 | 0.00 | 95 | 1022.1 |
| 20260906120038 | 66 | 171 | 3.0 | 5.0 | 0.00 | 0.00 | 0.00 | 96 | 1022.0 |
| 20260906115522 | 67 | 171 | 2.0 | 7.0 | 0.00 | 0.00 | 0.00 | 96 | 1022.0 |
| 20260906115017 | 67 | 171 | 3.0 | 7.0 | 0.00 | 0.00 | 0.00 | 96 | 1021.7 |
| 20260906114535 | 67 | 161 | 4.0 | 7.0 | 0.00 | 0.00 | 0.00 | 96 | 1021.6 |
| 20260906114018 | 67 | 175 | 3.0 | 6.0 | 0.00 | 0.00 | 0.00 | 96 | 1021.5 |
| 20260906113517 | 67 | 162 | 3.0 | 6.0 | 0.00 | 0.00 | 0.00 | 95 | 1021.4 |
| 20260906113034 | 66 | 157 | 2.0 | 7.0 | 0.00 | 0.00 | 0.00 | 95 | 1021.4 |
| 20260906112516 | 66 | 162 | 4.0 | 7.0 | 0.00 | 0.00 | 0.00 | 95 | 1021.4 |
| 20260906112020 | 67 | 172 | 4.0 | 6.0 | 0.00 | 0.00 | 0.00 | 95 | 1021.3 |
| 20260906111539 | 67 | 182 | 3.0 | 6.0 | 0.00 | 0.00 | 0.00 | 95 | 1021.3 |
| 20260906111021 | 66 | 183 | 3.0 | 8.0 | 0.00 | 0.00 | 0.00 | 95 | 1021.2 |
| 20260906110521 | 67 | 177 | 3.0 | 9.0 | 0.00 | 0.00 | 0.00 | 94 | 1021.2 |
| 20260906110038 | 67 | 171 | 5.0 | 9.0 | 0.00 | 0.00 | 0.00 | 94 | 1021.1 |
| 20260906105522 | 67 | 163 | 4.0 | 7.0 | 0.00 | 0.00 | 0.00 | 94 | 1021.2 |
| 20260906105021 | 67 | 159 | 2.0 | 7.0 | 0.00 | 0.00 | 0.00 | 94 | 1021.1 |
| 20260906104539 | 67 | 164 | 2.0 | 6.0 | 0.00 | 0.00 | 0.00 | 94 | 1021.2 |
| 20260906104018 | 67 | 164 | 2.0 | 5.0 | 0.00 | 0.00 | 0.00 | 93 | 1021.3 |
| 20260906103518 | 67 | 159 | 2.0 | 6.0 | 0.00 | 0.00 | 0.00 | 94 | 1021.1 |
| 20260906103037 | 67 | 140 | 2.0 | 6.0 | 0.00 | 0.00 | 0.00 | 94 | 1021.3 |
| 20260906102521 | 67 | 151 | 3.0 | 7.0 | 0.00 | 0.00 | 0.00 | 93 | 1021.1 |
| 20260906102021 | 67 | 166 | 3.0 | 8.0 | 0.00 | 0.00 | 0.00 | 94 | 1021.1 |
| 20260906101535 | 67 | 152 | 4.0 | 8.0 | 0.00 | 0.00 | 0.00 | 94 | 1021.1 |
| 20260906101020 | 67 | 161 | 4.0 | 8.0 | 0.00 | 0.00 | 0.00 | 94 | 1021.0 |
| 20260906100520 | 67 | 160 | 4.0 | 8.0 | 0.00 | 0.00 | 0.00 | 94 | 1020.9 |
| 20260906100039 | 67 | 161 | 4.0 | 7.0 | 0.00 | 0.00 | 0.00 | 95 | 1021.1 |
| 20260906095519 | 67 | 175 | 1.0 | 6.0 | 0.00 | 0.00 | 0.00 | 95 | 1021.1 |
| 20260906095019 | 66 | 175 | 2.0 | 6.0 | 0.00 | 0.00 | 0.00 | 95 | 1021.0 |
| 20260906094538 | 66 | 170 | 2.0 | 5.0 | 0.00 | 0.00 | 0.00 | 95 | 1021.0 |
| 20260906094018 | 66 | 130 | 2.0 | 6.0 | 0.00 | 0.00 | 0.00 | 95 | 1021.1 |
| 20260906093519 | 66 | 190 | 2.0 | 6.0 | 0.00 | 0.00 | 0.00 | 96 | 1021.1 |
| 20260906093034 | 65 | 162 | 1.0 | 5.0 | 0.00 | 0.00 | 0.00 | 96 | 1021.1 |
| 20260906092520 | 65 | 0 | 0.0 | 2.0 | 0.00 | 0.00 | 0.00 | 95 | 1021.2 |
| 20260906092023 | 65 | 0 | 0.0 | 2.0 | 0.00 | 0.00 | 0.00 | 96 | 1021.2 |
| 20260906091536 | 65 | 0 | 0.0 | 3.0 | 0.00 | 0.00 | 0.00 | 95 | 1021.2 |
| 20260906091021 | 65 | 0 | 0.0 | 4.0 | 0.00 | 0.00 | 0.00 | 96 | 1021.2 |
| 20260906090521 | 65 | 117 | 2.0 | 4.0 | 0.00 | 0.00 | 0.00 | 97 | 1021.1 |
| 20260906090039 | 64 | 166 | 1.0 | 4.0 | 0.00 | 0.00 | 0.00 | 97 | 1021.2 |
| 20260906085518 | 64 | 0 | 0.0 | 2.0 | 0.00 | 0.00 | 0.00 | 96 | 1021.1 |
| 20260906085022 | 64 | 0 | 0.0 | 3.0 | 0.00 | 0.00 | 0.00 | 97 | 1021.2 |
| 20260906084536 | 64 | 0 | 0.0 | 6.0 | 0.00 | 0.00 | 0.00 | 97 | 1021.0 |
| 20260906084020 | 63 | 150 | 2.0 | 6.0 | 0.00 | 0.00 | 0.00 | 98 | 1021.0 |
| 20260906083519 | 63 | 126 | 1.0 | 4.0 | 0.00 | 0.00 | 0.00 | 98 | 1021.2 |
| 20260906083037 | 62 | 0 | 0.0 | 1.0 | 0.00 | 0.00 | 0.00 | 97 | 1021.4 |
| 20260906082518 | 63 | 0 | 0.0 | 4.0 | 0.00 | 0.00 | 0.00 | 97 | 1021.4 |
| 20260906082016 | 63 | 0 | 0.0 | 4.0 | 0.00 | 0.00 | 0.00 | 98 | 1020.9 |
| 20260906081534 | 63 | 126 | 0.0 | 3.0 | 0.00 | 0.00 | 0.00 | 98 | 1020.7 |
| 20260906081020 | 62 | 0 | 0.0 | 2.0 | 0.00 | 0.00 | 0.00 | 98 | 1020.8 |
| 20260906080524 | 62 | 0 | 0.0 | 0.0 | 0.00 | 0.00 | 0.00 | 97 | 1021.0 |
| 20260906080038 | 62 | 0 | 0.0 | 0.0 | 0.00 | 0.00 | 0.00 | 96 | 1021.0 |
| 20260906075522 | 62 | 0 | 0.0 | 0.0 | 0.00 | 0.00 | 0.00 | 96 | 1020.9 |
| 20260906075021 | 62 | 0 | 0.0 | 0.0 | 0.00 | 0.00 | 0.00 | 96 | 1020.9 |
| 20260906074535 | 62 | 0 | 0.0 | 0.0 | 0.00 | 0.00 | 0.00 | 96 | 1021.1 |
| 20260906074021 | 63 | 0 | 0.0 | 0.0 | 0.00 | 0.00 | 0.00 | 96 | 1021.0 |
| 20260906073517 | 63 | 0 | 0.0 | 0.0 | 0.00 | 0.00 | 0.00 | 97 | 1021.0 |
| 20260906073036 | 63 | 0 | 0.0 | 0.0 | 0.00 | 0.00 | 0.00 | 97 | 1020.9 |
| 20260906072517 | 63 | 0 | 0.0 | 0.0 | 0.00 | 0.00 | 0.00 | 97 | 1021.1 |
| 20260906072026 | 63 | 0 | 0.0 | 0.0 | 0.00 | 0.00 | 0.00 | 98 | 1021.1 |
| 20260906071532 | 63 | 0 | 0.0 | 0.0 | 0.00 | 0.00 | 0.00 | 97 | 1021.1 |
| 20260906071020 | 63 | 0 | 0.0 | 0.0 | 0.00 | 0.00 | 0.00 | 97 | 1020.9 |
| 20260906070520 | 63 | 0 | 0.0 | 0.0 | 0.00 | 0.00 | 0.00 | 97 | 1021.0 |
| 20260906070035 | 63 | 0 | 0.0 | 0.0 | 0.00 | 0.00 | 0.00 | 98 | 1020.8 |
| 20260906065519 | 62 | 0 | 0.0 | 0.0 | 0.00 | 0.00 | 0.00 | 97 | 1020.9 |
| 20260906065019 | 62 | 0 | 0.0 | 0.0 | 0.00 | 0.00 | 0.00 | 97 | 1020.9 |
| 20260906064534 | 62 | 0 | 0.0 | 0.0 | 0.00 | 0.00 | 0.00 | 97 | 1021.0 |
| 20260906064018 | 62 | 0 | 0.0 | 0.0 | 0.00 | 0.00 | 0.00 | 97 | 1021.1 |
| 20260906063516 | 61 | 0 | 0.0 | 0.0 | 0.00 | 0.00 | 0.00 | 97 | 1021.2 |
| 20260906063034 | 61 | 0 | 0.0 | 0.0 | 0.00 | 0.00 | 0.00 | 97 | 1021.3 |
| 20260906062544 | 61 | 0 | 0.0 | 0.0 | 0.00 | 0.00 | 0.00 | 96 | 1021.3 |
| 20260906062021 | 61 | 0 | 0.0 | 0.0 | 0.00 | 0.00 | 0.00 | 96 | 1021.3 |
| 20260906061540 | 61 | 0 | 0.0 | 0.0 | 0.00 | 0.00 | 0.00 | 96 | 1021.3 |
| 20260906061020 | 61 | 0 | 0.0 | 0.0 | 0.00 | 0.00 | 0.00 | 96 | 1021.3 |
| 20260906060521 | 61 | 0 | 0.0 | 0.0 | 0.00 | 0.00 | 0.00 | 96 | 1021.3 |
| 20260906060037 | 61 | 0 | 0.0 | 0.0 | 0.00 | 0.00 | 0.00 | 96 | 1021.3 |
| 20260906055519 | 62 | 0 | 0.0 | 0.0 | 0.00 | 0.00 | 0.00 | 96 | 1021.0 |
| 20260906055019 | 62 | 0 | 0.0 | 0.0 | 0.00 | 0.00 | 0.00 | 95 | 1020.9 |
| 20260906054536 | 62 | 0 | 0.0 | 0.0 | 0.00 | 0.00 | 0.00 | 95 | 1020.9 |
| 20260906054022 | 62 | 0 | 0.0 | 0.0 | 0.00 | 0.00 | 0.00 | 95 | 1021.0 |
| 20260906053522 | 62 | 0 | 0.0 | 0.0 | 0.00 | 0.00 | 0.00 | 95 | 1021.0 |
| 20260906053043 | 62 | 0 | 0.0 | 0.0 | 0.00 | 0.00 | 0.00 | 95 | 1020.9 |
| 20260906052523 | 62 | 0 | 0.0 | 0.0 | 0.00 | 0.00 | 0.00 | 95 | 1021.0 |
| 20260906052020 | 62 | 0 | 0.0 | 0.0 | 0.00 | 0.00 | 0.00 | 95 | 1021.0 |
| 20260906051535 | 63 | 0 | 0.0 | 0.0 | 0.00 | 0.00 | 0.00 | 95 | 1020.9 |
| 20260906051024 | 63 | 0 | 0.0 | 0.0 | 0.00 | 0.00 | 0.00 | 95 | 1020.7 |
| 20260906050519 | 62 | 0 | 0.0 | 0.0 | 0.00 | 0.00 | 0.00 | 95 | 1020.8 |
| 20260906050046 | 62 | 0 | 0.0 | 0.0 | 0.00 | 0.00 | 0.00 | 95 | 1020.6 |
| 20260906045520 | 62 | 0 | 0.0 | 0.0 | 0.00 | 0.00 | 0.00 | 94 | 1020.8 |
| 20260906045018 | 62 | 0 | 0.0 | 0.0 | 0.00 | 0.00 | 0.00 | 94 | 1020.9 |
| 20260906044537 | 62 | 0 | 0.0 | 0.0 | 0.00 | 0.00 | 0.00 | 94 | 1021.0 |
| 20260906044021 | 63 | 0 | 0.0 | 0.0 | 0.00 | 0.00 | 0.00 | 94 | 1021.0 |
| 20260906043521 | 63 | 0 | 0.0 | 0.0 | 0.00 | 0.00 | 0.00 | 94 | 1021.0 |
| 20260906043035 | 63 | 0 | 0.0 | 0.0 | 0.00 | 0.00 | 0.00 | 94 | 1020.9 |
| 20260906042520 | 63 | 0 | 0.0 | 0.0 | 0.00 | 0.00 | 0.00 | 94 | 1020.9 |
| 20260906042020 | 63 | 0 | 0.0 | 0.0 | 0.00 | 0.00 | 0.00 | 94 | 1020.9 |
| 20260906041536 | 63 | 0 | 0.0 | 0.0 | 0.00 | 0.00 | 0.00 | 94 | 1020.9 |
| 20260906041020 | 63 | 0 | 0.0 | 0.0 | 0.00 | 0.00 | 0.00 | 94 | 1020.9 |
| 20260906040520 | 63 | 0 | 0.0 | 0.0 | 0.00 | 0.00 | 0.00 | 94 | 1020.9 |
| 20260906040041 | 63 | 0 | 0.0 | 0.0 | 0.00 | 0.00 | 0.00 | 94 | 1021.0 |
| 20260906035517 | 63 | 0 | 0.0 | 0.0 | 0.00 | 0.00 | 0.00 | 94 | 1020.8 |
| 20260906035019 | 63 | 0 | 0.0 | 0.0 | 0.00 | 0.00 | 0.00 | 94 | 1020.6 |
| 20260906034543 | 63 | 0 | 0.0 | 0.0 | 0.00 | 0.00 | 0.00 | 93 | 1020.6 |
| 20260906034020 | 63 | 0 | 0.0 | 0.0 | 0.00 | 0.00 | 0.00 | 93 | 1020.5 |
| 20260906033520 | 63 | 0 | 0.0 | 0.0 | 0.00 | 0.00 | 0.00 | 93 | 1020.5 |
| 20260906033044 | 63 | 0 | 0.0 | 0.0 | 0.00 | 0.00 | 0.00 | 93 | 1020.4 |
| 20260906032519 | 63 | 0 | 0.0 | 0.0 | 0.00 | 0.00 | 0.00 | 93 | 1020.2 |
| 20260906032020 | 63 | 0 | 0.0 | 0.0 | 0.00 | 0.00 | 0.00 | 93 | 1020.2 |
| 20260906031534 | 63 | 0 | 0.0 | 0.0 | 0.00 | 0.00 | 0.00 | 93 | 1020.1 |
| 20260906031019 | 63 | 0 | 0.0 | 0.0 | 0.00 | 0.00 | 0.00 | 93 | 1020.0 |
| 20260906030520 | 63 | 0 | 0.0 | 0.0 | 0.00 | 0.00 | 0.00 | 93 | 1020.1 |
| 20260906030040 | 64 | 0 | 0.0 | 0.0 | 0.00 | 0.00 | 0.00 | 93 | 1020.1 |
| 20260906025518 | 63 | 0 | 0.0 | 0.0 | 0.00 | 0.00 | 0.00 | 93 | 1020.2 |
| 20260906025018 | 63 | 0 | 0.0 | 0.0 | 0.00 | 0.00 | 0.00 | 92 | 1020.2 |
| 20260906024539 | 64 | 0 | 0.0 | 0.0 | 0.00 | 0.00 | 0.00 | 92 | 1020.1 |
| 20260906024018 | 64 | 0 | 0.0 | 0.0 | 0.00 | 0.00 | 0.00 | 92 | 1020.0 |
| 20260906023520 | 64 | 0 | 0.0 | 0.0 | 0.00 | 0.00 | 0.00 | 92 | 1020.0 |
| 20260906023035 | 64 | 0 | 0.0 | 0.0 | 0.00 | 0.00 | 0.00 | 92 | 1019.8 |
| 20260906022520 | 64 | 0 | 0.0 | 0.0 | 0.00 | 0.00 | 0.00 | 92 | 1019.8 |
| 20260906022020 | 64 | 0 | 0.0 | 0.0 | 0.00 | 0.00 | 0.00 | 92 | 1019.8 |
| 20260906021533 | 64 | 0 | 0.0 | 0.0 | 0.00 | 0.00 | 0.00 | 92 | 1019.8 |
| 20260906021024 | 64 | 0 | 0.0 | 0.0 | 0.00 | 0.00 | 0.00 | 92 | 1019.6 |
| 20260906020519 | 64 | 0 | 0.0 | 0.0 | 0.00 | 0.00 | 0.00 | 92 | 1019.6 |
| 20260906020043 | 64 | 0 | 0.0 | 0.0 | 0.00 | 0.00 | 0.00 | 92 | 1019.6 |
| 20260906015518 | 64 | 0 | 0.0 | 0.0 | 0.00 | 0.00 | 0.00 | 92 | 1019.5 |
| 20260906015016 | 64 | 0 | 0.0 | 0.0 | 0.00 | 0.00 | 0.00 | 92 | 1019.5 |
| 20260906014545 | 64 | 0 | 0.0 | 0.0 | 0.00 | 0.00 | 0.00 | 92 | 1019.5 |
| 20260906014019 | 64 | 0 | 0.0 | 0.0 | 0.00 | 0.00 | 0.00 | 92 | 1019.5 |
| 20260906013520 | 64 | 0 | 0.0 | 0.0 | 0.00 | 0.00 | 0.00 | 91 | 1019.6 |
| 20260906013037 | 65 | 0 | 0.0 | 0.0 | 0.00 | 0.00 | 0.00 | 91 | 1019.6 |
| 20260906012515 | 65 | 0 | 0.0 | 0.0 | 0.00 | 0.00 | 0.00 | 91 | 1019.5 |
| 20260906012015 | 65 | 0 | 0.0 | 0.0 | 0.00 | 0.00 | 0.00 | 91 | 1019.6 |
| 20260906011534 | 65 | 0 | 0.0 | 0.0 | 0.00 | 0.00 | 0.00 | 90 | 1019.3 |
| 20260906011019 | 65 | 0 | 0.0 | 0.0 | 0.00 | 0.00 | 0.00 | 90 | 1019.5 |
| 20260906010524 | 65 | 0 | 0.0 | 0.0 | 0.00 | 0.00 | 0.00 | 89 | 1019.6 |
| 20260906010034 | 66 | 0 | 0.0 | 0.0 | 0.00 | 0.00 | 0.00 | 88 | 1019.5 |
| 20260906005522 | 66 | 0 | 0.0 | 0.0 | 0.00 | 0.00 | 0.00 | 88 | 1019.5 |
| 20260906005020 | 66 | 0 | 0.0 | 0.0 | 0.00 | 0.00 | 0.00 | 88 | 1019.5 |
| 20260906004534 | 67 | 0 | 0.0 | 0.0 | 0.00 | 0.00 | 0.00 | 87 | 1019.7 |
| 20260906004024 | 67 | 0 | 0.0 | 0.0 | 0.00 | 0.00 | 0.00 | 87 | 1019.7 |
| 20260906003518 | 67 | 0 | 0.0 | 0.0 | 0.00 | 0.00 | 0.00 | 86 | 1019.6 |
| 20260906003034 | 68 | 0 | 0.0 | 0.0 | 0.00 | 0.00 | 0.00 | 86 | 1019.6 |
| 20260906002519 | 68 | 0 | 0.0 | 0.0 | 0.00 | 0.00 | 0.00 | 86 | 1019.6 |
| 20260906002021 | 68 | 0 | 0.0 | 0.0 | 0.00 | 0.00 | 0.00 | 85 | 1019.5 |
| 20260906001533 | 69 | 0 | 0.0 | 1.0 | 0.00 | 0.00 | 0.00 | 85 | 1019.5 |
| 20260906001021 | 69 | 0 | 0.0 | 1.0 | 0.00 | 0.00 | 0.00 | 84 | 1019.5 |
| 20260906000521 | 70 | 0 | 0.0 | 1.0 | 0.00 | 0.00 | 0.00 | 84 | 1019.6 |
| 20260906000037 | 70 | 0 | 0.0 | 1.0 | 0.00 | 0.00 | 0.00 | 83 | 1019.6 |
| 20260905235521 | 70 | 0 | 0.0 | 2.0 | 0.00 | 0.00 | 0.00 | 83 | 1019.6 |
| 20260905235020 | 71 | 0 | 0.0 | 2.0 | 0.00 | 0.00 | 0.00 | 82 | 1019.6 |
| 20260905234537 | 71 | 0 | 0.0 | 3.0 | 0.00 | 0.00 | 0.00 | 82 | 1019.5 |
| 20260905234017 | 71 | 0 | 0.0 | 3.0 | 0.00 | 0.00 | 0.00 | 83 | 1019.5 |
| 20260905233519 | 72 | 0 | 0.0 | 3.0 | 0.00 | 0.00 | 0.00 | 82 | 1019.6 |
| 20260905233039 | 72 | 0 | 0.0 | 3.0 | 0.00 | 0.00 | 0.00 | 82 | 1019.7 |
| 20260905232524 | 72 | 0 | 0.0 | 2.0 | 0.00 | 0.00 | 0.00 | 83 | 1019.6 |
| 20260905232020 | 72 | 0 | 0.0 | 0.0 | 0.00 | 0.00 | 0.00 | 82 | 1019.5 |
| 20260905231541 | 72 | 0 | 0.0 | 0.0 | 0.00 | 0.00 | 0.00 | 83 | 1019.4 |
| 20260905231024 | 73 | 0 | 0.0 | 1.0 | 0.00 | 0.00 | 0.00 | 84 | 1019.5 |
| 20260905230521 | 73 | 0 | 0.0 | 2.0 | 0.00 | 0.00 | 0.00 | 82 | 1019.4 |
| 20260905230041 | 73 | 0 | 0.0 | 2.0 | 0.00 | 0.00 | 0.00 | 82 | 1019.5 |
| 20260905225521 | 73 | 0 | 0.0 | 2.0 | 0.00 | 0.00 | 0.00 | 83 | 1019.5 |
| 20260905225020 | 73 | 319 | 0.0 | 1.0 | 0.00 | 0.00 | 0.00 | 83 | 1019.6 |
| 20260905224535 | 73 | 0 | 0.0 | 2.0 | 0.00 | 0.00 | 0.00 | 84 | 1019.5 |
| 20260905224020 | 73 | 0 | 0.0 | 2.0 | 0.00 | 0.00 | 0.00 | 83 | 1019.6 |
| 20260905223518 | 73 | 0 | 0.0 | 2.0 | 0.00 | 0.00 | 0.00 | 83 | 1019.5 |
| 20260905223037 | 73 | 0 | 0.0 | 1.0 | 0.00 | 0.00 | 0.00 | 83 | 1019.5 |
| 20260905222520 | 73 | 0 | 0.0 | 1.0 | 0.00 | 0.00 | 0.00 | 84 | 1019.5 |
| 20260905222023 | 74 | 0 | 0.0 | 2.0 | 0.00 | 0.00 | 0.00 | 83 | 1019.6 |
| 20260905221536 | 74 | 0 | 0.0 | 2.0 | 0.00 | 0.00 | 0.00 | 82 | 1019.7 |
| 20260905221020 | 75 | 0 | 0.0 | 1.0 | 0.00 | 0.00 | 0.00 | 82 | 1019.7 |
| 20260905220519 | 75 | 0 | 0.0 | 1.0 | 0.00 | 0.00 | 0.00 | 82 | 1019.6 |
| 20260905220035 | 75 | 175 | 0.0 | 1.0 | 0.00 | 0.00 | 0.00 | 83 | 1019.6 |
| 20260905215521 | 75 | 0 | 0.0 | 1.0 | 0.00 | 0.00 | 0.00 | 82 | 1019.5 |
| 20260905215016 | 75 | 0 | 0.0 | 1.0 | 0.00 | 0.00 | 0.00 | 82 | 1019.6 |
| 20260905214536 | 75 | 0 | 0.0 | 1.0 | 0.00 | 0.00 | 0.00 | 83 | 1019.6 |
| 20260905214019 | 74 | 0 | 0.0 | 1.0 | 0.00 | 0.00 | 0.00 | 82 | 1019.7 |
| 20260905213523 | 74 | 0 | 0.0 | 1.0 | 0.00 | 0.00 | 0.00 | 84 | 1019.7 |
| 20260905213035 | 74 | 0 | 0.0 | 1.0 | 0.00 | 0.00 | 0.00 | 84 | 1019.6 |
| 20260905212523 | 74 | 0 | 0.0 | 1.0 | 0.00 | 0.00 | 0.00 | 84 | 1019.8 |
| 20260905212019 | 74 | 0 | 0.0 | 1.0 | 0.00 | 0.00 | 0.00 | 83 | 1019.8 |
| 20260905211606 | 74 | 0 | 0.0 | 1.0 | 0.00 | 0.00 | 0.00 | 83 | 1019.9 |
| 20260905211019 | 74 | 0 | 0.0 | 2.0 | 0.00 | 0.00 | 0.00 | 84 | 1019.9 |
| 20260905210517 | 74 | 0 | 0.0 | 2.0 | 0.00 | 0.00 | 0.00 | 83 | 1019.9 |
| 20260905210035 | 74 | 0 | 0.0 | 2.0 | 0.00 | 0.00 | 0.00 | 83 | 1019.9 |
| 20260905205524 | 74 | 0 | 0.0 | 2.0 | 0.00 | 0.00 | 0.00 | 83 | 1019.8 |
| 20260905205021 | 74 | 0 | 0.0 | 2.0 | 0.00 | 0.00 | 0.00 | 84 | 1019.9 |
| 20260905204537 | 75 | 0 | 0.0 | 3.0 | 0.00 | 0.00 | 0.00 | 83 | 1020.0 |
| 20260905204020 | 75 | 0 | 0.0 | 3.0 | 0.00 | 0.00 | 0.00 | 82 | 1020.2 |
| 20260905203518 | 75 | 0 | 0.0 | 3.0 | 0.00 | 0.00 | 0.00 | 81 | 1020.2 |
| 20260905203039 | 75 | 0 | 0.0 | 3.0 | 0.00 | 0.00 | 0.00 | 82 | 1020.2 |
| 20260905202516 | 75 | 0 | 0.0 | 3.0 | 0.00 | 0.00 | 0.00 | 81 | 1020.1 |
| 20260905202016 | 75 | 0 | 0.0 | 4.0 | 0.00 | 0.00 | 0.00 | 82 | 1020.1 |
| 20260905201534 | 75 | 0 | 0.0 | 5.0 | 0.00 | 0.00 | 0.00 | 82 | 1020.1 |
| 20260905201019 | 75 | 323 | 0.0 | 5.0 | 0.00 | 0.00 | 0.00 | 82 | 1020.2 |
| 20260905200523 | 75 | 0 | 0.0 | 5.0 | 0.00 | 0.00 | 0.00 | 81 | 1020.2 |
| 20260905200036 | 75 | 0 | 0.0 | 4.0 | 0.00 | 0.00 | 0.00 | 81 | 1020.3 |
| 20260905195520 | 75 | 0 | 0.0 | 2.0 | 0.00 | 0.00 | 0.00 | 83 | 1020.3 |
| 20260905195026 | 74 | 0 | 0.0 | 3.0 | 0.00 | 0.00 | 0.00 | 82 | 1020.2 |
| 20260905194537 | 74 | 0 | 0.0 | 3.0 | 0.00 | 0.00 | 0.00 | 83 | 1020.1 |
| 20260905194019 | 74 | 153 | 0.0 | 3.0 | 0.00 | 0.00 | 0.00 | 82 | 1020.1 |
| 20260905193516 | 75 | 106 | 0.0 | 3.0 | 0.00 | 0.00 | 0.00 | 82 | 1020.1 |
| 20260905193038 | 74 | 0 | 0.0 | 2.0 | 0.00 | 0.00 | 0.00 | 83 | 1020.0 |
| 20260905192521 | 74 | 0 | 0.0 | 4.0 | 0.00 | 0.00 | 0.00 | 83 | 1020.0 |
| 20260905192022 | 74 | 0 | 0.0 | 4.0 | 0.00 | 0.00 | 0.00 | 82 | 1020.0 |
| 20260905191539 | 74 | 0 | 0.0 | 2.0 | 0.00 | 0.00 | 0.00 | 84 | 1019.9 |
| 20260905191021 | 74 | 0 | 0.0 | 2.0 | 0.00 | 0.00 | 0.00 | 82 | 1020.0 |
| 20260905190522 | 74 | 0 | 0.0 | 2.0 | 0.00 | 0.00 | 0.00 | 82 | 1020.0 |
| 20260905190032 | 74 | 0 | 0.0 | 1.0 | 0.00 | 0.00 | 0.00 | 82 | 1020.0 |
| 20260905185519 | 74 | 0 | 0.0 | 2.0 | 0.00 | 0.00 | 0.00 | 83 | 1020.1 |
| 20260905185018 | 73 | 0 | 0.0 | 2.0 | 0.00 | 0.00 | 0.00 | 84 | 1020.1 |
| 20260905184534 | 73 | 0 | 0.0 | 4.0 | 0.00 | 0.00 | 0.00 | 86 | 1020.3 |
| 20260905184016 | 73 | 0 | 0.0 | 4.0 | 0.00 | 0.00 | 0.00 | 85 | 1020.3 |
| 20260905183521 | 72 | 344 | 0.0 | 4.0 | 0.00 | 0.00 | 0.00 | 84 | 1020.4 |
| 20260905183036 | 72 | 0 | 0.0 | 4.0 | 0.00 | 0.00 | 0.00 | 85 | 1020.3 |
| 20260905182523 | 72 | 0 | 0.0 | 4.0 | 0.00 | 0.00 | 0.00 | 86 | 1020.4 |
| 20260905182020 | 71 | 323 | 0.0 | 4.0 | 0.00 | 0.00 | 0.00 | 87 | 1020.5 |
| 20260905181536 | 71 | 0 | 0.0 | 0.0 | 0.00 | 0.00 | 0.00 | 89 | 1020.3 |
| 20260905181020 | 70 | 0 | 0.0 | 0.0 | 0.00 | 0.00 | 0.00 | 90 | 1020.4 |
| 20260905180523 | 70 | 0 | 0.0 | 1.0 | 0.00 | 0.00 | 0.00 | 88 | 1020.3 |
| 20260905180036 | 70 | 0 | 0.0 | 1.0 | 0.00 | 0.00 | 0.00 | 87 | 1020.4 |
| 20260905175521 | 70 | 0 | 0.0 | 1.0 | 0.00 | 0.00 | 0.00 | 88 | 1020.4 |
| 20260905175020 | 70 | 0 | 0.0 | 2.0 | 0.00 | 0.00 | 0.00 | 89 | 1020.4 |
| 20260905174534 | 70 | 0 | 0.0 | 2.0 | 0.00 | 0.00 | 0.00 | 89 | 1020.5 |
| 20260905174018 | 70 | 0 | 0.0 | 2.0 | 0.00 | 0.00 | 0.00 | 90 | 1020.7 |
| 20260905173518 | 69 | 0 | 0.0 | 1.0 | 0.00 | 0.00 | 0.00 | 90 | 1020.8 |
| 20260905173033 | 69 | 0 | 0.0 | 1.0 | 0.00 | 0.00 | 0.00 | 91 | 1020.8 |
| 20260905172520 | 69 | 0 | 0.0 | 1.0 | 0.00 | 0.00 | 0.00 | 90 | 1020.8 |
| 20260905172021 | 69 | 0 | 0.0 | 1.0 | 0.00 | 0.00 | 0.00 | 92 | 1020.8 |
| 20260905171536 | 68 | 0 | 0.0 | 1.0 | 0.00 | 0.00 | 0.00 | 91 | 1020.7 |
| 20260905171022 | 68 | 0 | 0.0 | 0.0 | 0.00 | 0.00 | 0.00 | 92 | 1020.8 |
| 20260905170519 | 68 | 0 | 0.0 | 0.0 | 0.00 | 0.00 | 0.00 | 92 | 1020.9 |
| 20260905170038 | 68 | 0 | 0.0 | 0.0 | 0.00 | 0.00 | 0.00 | 92 | 1020.9 |
| 20260905165518 | 68 | 0 | 0.0 | 1.0 | 0.00 | 0.00 | 0.00 | 92 | 1021.0 |